Home   Weather   Woodenbong   Past weeks
Flag for Australia

Past Weather in Woodenbong, New South Wales, Australia — Yesterday and Last 2 Weeks

Currently: 63 °F. Cool. (Weather station: MADIS Weather Station E5738 (APRSWXNET), Australia). See more current weather

Past Weather in Woodenbong — Graph

°F

Woodenbong Temperature Yesterday

Maximum temperature yesterday: 71 °F (at 12:45 pm)
Minimum temperature yesterday: 63 °F (at 5:00 am)
Average temperature yesterday: 67 °F

High & Low Weather Summary for the Past Weeks

 TemperatureHumidityPressure
High80 °F (May 5, 1:15 pm)98% (May 14, 9:15 pm)30.07 "Hg (May 14, 9:15 pm)
Low60 °F (May 9, 8:00 pm)66% (May 5, 2:00 pm)29.62 "Hg (May 15, 2:45 pm)
Average69 °F91%29.83 "Hg
* Reported May 5 5:15 am — May 20 5:30 am, Woodenbong. Weather by CustomWeather, © 2022

Note: Actual official high and low records may vary slightly from our data, if they occured in-between our weather recording intervals... More about our weather records

Woodenbong Weather History for the Previous 24 Hours

Scroll right to see more
 ConditionsComfort  
Time TempWeatherWind HumidityBarometerVisibility
5:30 am
Fri, May 20
63 °FCool.4 mph84%30.03 "HgN/A
4:45 am63 °FCool.4 mph84%30.02 "HgN/A
4:15 am63 °FCool.4 mph84%30.01 "HgN/A
3:46 am63 °FCool.7 mph85%30.00 "HgN/A
3:15 am63 °FCool.3 mph85%30.00 "HgN/A
3:00 am64 °FCool.2 mph85%30.00 "HgN/A
2:45 am64 °FCool.5 mph84%30.00 "HgN/A
2:15 am64 °FCool.3 mph84%30.00 "HgN/A
1:45 am64 °FCool.3 mph84%30.01 "HgN/A
1:15 am64 °FCool.2 mph84%30.01 "HgN/A
1:00 am64 °FCool.4 mph84%30.02 "HgN/A
12:45 am64 °FCool.3 mph85%30.02 "HgN/A
12:15 am64 °FCool.3 mph85%30.03 "HgN/A
10:15 pm
Thu, May 19
65 °FCool.No wind83%30.04 "HgN/A
10:00 pm65 °FCool.No wind83%30.03 "HgN/A
9:45 pm65 °FCool.1 mph82%30.03 "HgN/A
9:30 pm65 °FCool.2 mph82%30.03 "HgN/A
9:00 pm66 °FCool.2 mph81%30.03 "HgN/A
8:30 pm66 °FCool.3 mph80%30.03 "HgN/A
8:15 pm67 °FCool.4 mph80%30.02 "HgN/A
8:00 pm67 °FCool.5 mph81%30.02 "HgN/A
7:16 pm67 °FCool.3 mph81%30.01 "HgN/A
6:45 pm67 °FCool.2 mph81%30.00 "HgN/A
6:00 pm68 °FCool.3 mph80%29.98 "HgN/A
5:00 pm69 °FCool.3 mph78%29.96 "HgN/A
4:00 pm70 °FCool.3 mph79%29.95 "HgN/A
3:01 pm70 °FCool.5 mph77%29.93 "HgN/A
2:45 pm71 °FCool.6 mph76%29.93 "HgN/A
2:15 pm70 °FCool.5 mph78%29.94 "HgN/A
1:45 pm70 °FCool.6 mph77%29.93 "HgN/A
1:00 pm71 °FCool.4 mph77%29.94 "HgN/A
12:45 pm71 °FCool.8 mph79%29.94 "HgN/A
12:15 pm70 °FCool.6 mph80%29.95 "HgN/A
12:00 pm69 °FCool.3 mph82%29.95 "HgN/A
11:00 am68 °FCool.2 mph90%29.98 "HgN/A
10:45 am68 °FCool.No wind90%29.98 "HgN/A
10:15 am68 °FCool.1 mph89%29.98 "HgN/A
9:46 am67 °FCool.4 mph91%29.98 "HgN/A
9:15 am67 °FCool.3 mph92%29.98 "HgN/A
9:00 am67 °FCool.3 mph91%29.98 "HgN/A
8:30 am66 °FCool.2 mph91%29.97 "HgN/A
8:15 am66 °FCool.7 mph92%29.97 "HgN/A
7:15 am64 °FCool.3 mph94%29.94 "HgN/A
Weather by CustomWeather, © 2022

See weather overview